GAP525 RPLL-RPVM

Flight info

Callsign GAP525
Flight time N/A
Altitude 31000
Route IPATA2R IPATA W25 BATAY BATAY3P
Aircraft A20N/M-SDE2E3FGHIRWXY/LB1

Departure

Time 2026-05-07 14:31
Airport Ninoy Aquino International Airport (RPLL)

Arrival

Time N/A
Airport Mactan Cebu International Airport (RPVM)
Time Latitude Longitude Altitude Speed Heading
2026-05-07 14:05 14.50881 121.01371 44 ft 0 kts 330°
2026-05-07 14:20 14.50874 121.01375 64 ft 2 kts 330°
2026-05-07 14:20 14.50859 121.01383 65 ft 2 kts 331°
2026-05-07 14:20 14.50845 121.01393 66 ft 2 kts 315°
2026-05-07 14:21 14.50835 121.01406 71 ft 2 kts 304°
2026-05-07 14:21 14.50827 121.01420 62 ft 2 kts 292°
2026-05-07 14:21 14.50822 121.01437 65 ft 2 kts 271°
2026-05-07 14:21 14.50823 121.01444 68 ft 0 kts 253°
2026-05-07 14:24 14.50823 121.01443 71 ft 2 kts 253°
2026-05-07 14:24 14.50787 121.01388 69 ft 20 kts 236°
2026-05-07 14:24 14.50741 121.01320 72 ft 9 kts 213°
2026-05-07 14:25 14.50712 121.01314 64 ft 0 kts 186°
2026-05-07 14:26 14.50676 121.01312 64 ft 11 kts 198°
2026-05-07 14:26 14.50626 121.01243 69 ft 21 kts 240°
2026-05-07 14:27 14.50540 121.01089 71 ft 28 kts 239°
2026-05-07 14:27 14.50433 121.00897 66 ft 36 kts 240°
2026-05-07 14:27 14.50339 121.00728 67 ft 43 kts 240°
2026-05-07 14:27 14.50138 121.00369 63 ft 44 kts 239°
2026-05-07 14:28 14.50034 121.00179 67 ft 29 kts 240°
2026-05-07 14:28 14.49940 121.00011 69 ft 21 kts 241°
2026-05-07 14:28 14.49877 120.99968 65 ft 0 kts 161°
2026-05-07 14:29 14.49852 120.99978 70 ft 16 kts 154°
2026-05-07 14:29 14.49810 121.00060 68 ft 7 kts 45°
2026-05-07 14:29 14.49843 121.00111 66 ft 0 kts 60°
2026-05-07 14:30 14.49844 121.00113 66 ft 0 kts 60°
2026-05-07 14:30 14.49845 121.00114 66 ft 1 kts 60°
2026-05-07 14:30 14.49884 121.00184 69 ft 37 kts 60°
2026-05-07 14:30 14.50133 121.00632 62 ft 104 kts 60°
2026-05-07 14:31 14.50588 121.01452 68 ft 157 kts 61°
2026-05-07 14:31 14.51187 121.02475 391 ft 173 kts 60°
2026-05-07 14:31 14.51831 121.03556 923 ft 182 kts 60°
2026-05-07 14:31 14.52490 121.04681 1491 ft 184 kts 60°
2026-05-07 14:32 14.53145 121.05817 2128 ft 186 kts 61°
2026-05-07 14:32 14.53805 121.07052 2609 ft 210 kts 63°
2026-05-07 14:32 14.54557 121.08493 3000 ft 236 kts 62°
2026-05-07 14:32 14.55369 121.10013 3666 ft 247 kts 62°
2026-05-07 14:33 14.56225 121.11584 4379 ft 255 kts 61°
2026-05-07 14:33 14.57027 121.13252 5068 ft 263 kts 71°
2026-05-07 14:33 14.57435 121.15081 5821 ft 267 kts 81°
2026-05-07 14:33 14.57674 121.16989 6517 ft 270 kts 83°
2026-05-07 14:34 14.57887 121.18958 7279 ft 273 kts 84°
2026-05-07 14:34 14.58097 121.20908 8115 ft 275 kts 84°
2026-05-07 14:34 14.58306 121.22854 8922 ft 278 kts 85°
2026-05-07 14:34 14.58254 121.24877 9753 ft 281 kts 100°
2026-05-07 14:35 14.57547 121.26743 10414 ft 289 kts 122°
2026-05-07 14:35 14.56150 121.28297 10840 ft 306 kts 139°
2026-05-07 14:35 14.54408 121.29673 11179 ft 324 kts 142°
2026-05-07 14:35 14.52547 121.31055 11672 ft 334 kts 143°
2026-05-07 14:36 14.50653 121.32467 12272 ft 339 kts 142°
2026-05-07 14:36 14.48738 121.33910 12895 ft 343 kts 142°
2026-05-07 14:36 14.46778 121.35398 13525 ft 346 kts 142°
2026-05-07 14:36 14.44859 121.36859 14118 ft 349 kts 142°
2026-05-07 14:37 14.42869 121.38379 14699 ft 353 kts 142°
2026-05-07 14:37 14.38913 121.41404 15834 ft 360 kts 142°
2026-05-07 14:37 14.36890 121.42952 16407 ft 364 kts 142°
2026-05-07 14:38 14.34849 121.44513 16987 ft 367 kts 142°
2026-05-07 14:38 14.32791 121.46089 17524 ft 371 kts 142°
2026-05-07 14:38 14.30709 121.47681 18041 ft 375 kts 142°
2026-05-07 14:38 14.28608 121.49288 18502 ft 377 kts 142°
2026-05-07 14:39 14.26490 121.50906 18951 ft 380 kts 142°
2026-05-07 14:39 14.24360 121.52533 19385 ft 383 kts 142°
2026-05-07 14:39 14.22210 121.54172 19806 ft 385 kts 142°
2026-05-07 14:39 14.20045 121.55823 20248 ft 388 kts 142°
2026-05-07 14:40 14.17869 121.57482 20687 ft 391 kts 142°
2026-05-07 14:40 14.15679 121.59153 21160 ft 393 kts 142°
2026-05-07 14:40 14.13473 121.60835 21619 ft 396 kts 142°
2026-05-07 14:40 14.11247 121.62532 22087 ft 399 kts 142°
2026-05-07 14:41 14.09010 121.64238 22558 ft 402 kts 142°
2026-05-07 14:41 14.06758 121.65956 23043 ft 405 kts 142°